Bolton Field, OH

8:47 PM EDT on August 21, 2017 (GMT -0400)
Bolton

Weather History for KTZR - August, 2013

Change the Weather History Date:

Sunday, August 4, 2013

  Actual Average Record
Temperature  
Mean Temperature 66 °F -  
Max Temperature 75 °F 80 °F 93 °F (2002)
Min Temperature 58 °F 63 °F 57 °F (2014)
Cooling Degree Days 2    
Growing Degree Days 16 (Base 50)    
Moisture  
Dew Point 57 °F    
Average Humidity 79    
Maximum Humidity 96    
Minimum Humidity 50    
Precipitation  
Precipitation 0.00 in - - ()
Sea Level Pressure  
Sea Level Pressure 30.09 in    
Wind  
Wind Speed 4 mph (NNW)    
Max Wind Speed 12 mph    
Max Gust Speed 20 mph    
Visibility 9 miles    
Events      
Averages and records for this station are not official NWS values.
T = Trace of Precipitation, MM = Missing Value Source: NWS Daily Summary

Daily Weather History Graph

Daily Weather History Graph

Search for Another Location

Airport or City:

Trip Planner

Search our weather history database for the weather conditions in past years. The results will help you decide how hot, cold, wet, or windy it might be!

Date:

Astronomy

Aug. 04, 2013 Rise Set
Actual Time 6:34 AM EDT 8:42 PM EDT
Civil Twilight 6:04 AM EDT 9:12 PM EDT
Nautical Twilight 5:27 AM EDT 9:48 PM EDT
Astronomical Twilight 4:47 AM EDT 10:28 PM EDT
Moon 4:34 AM EDT (8/4) 7:04 PM EDT (8/4)
Length of Visible Light 15h 08m
Length of Day
14h 08m
Waning Crescent, 5% of the Moon is Illuminated
Aug 4
Waning Crescent
Aug 6
New
Aug 14
First Quarter
Aug 20
Full
Aug 28
Last Quarter

Hourly Weather History & Observations

Time (EDT) Temp. Dew Point Humidity Pressure Visibility Wind Dir Wind Speed Gust Speed Precip Events Conditions
12:15 AM 63.5 °F 61.3 °F 93% 30.04 in 10.0 mi Calm Calm - N/A   Mostly Cloudy
12:35 AM 63.9 °F 61.9 °F 93% 30.04 in 10.0 mi Calm Calm - N/A   Overcast
12:55 AM 64.4 °F 61.7 °F 91% 30.04 in 10.0 mi NW 4.6 mph - N/A   Mostly Cloudy
1:15 AM 64.4 °F 61.7 °F 91% 30.04 in 10.0 mi Calm Calm - N/A   Overcast
1:35 AM 64.4 °F 62.1 °F 92% 30.04 in 10.0 mi WNW 3.5 mph - N/A   Overcast
1:55 AM 63.9 °F 61.2 °F 91% 30.04 in 10.0 mi Calm Calm - N/A   Mostly Cloudy
2:15 AM 62.6 °F 61.0 °F 94% 30.04 in 10.0 mi Calm Calm - N/A   Mostly Cloudy
2:35 AM 61.9 °F 60.8 °F 96% 30.04 in 10.0 mi Calm Calm - N/A   Scattered Clouds
2:55 AM 61.9 °F 60.4 °F 95% 30.04 in 10.0 mi Calm Calm - N/A   Clear
3:15 AM 61.5 °F 59.7 °F 94% 30.04 in 10.0 mi NW 3.5 mph - N/A   Mostly Cloudy
3:35 AM 61.5 °F 59.9 °F 94% 30.05 in 10.0 mi WNW 3.5 mph - N/A   Mostly Cloudy
3:55 AM 61.0 °F 59.2 °F 94% 30.04 in 10.0 mi Calm Calm - N/A   Scattered Clouds
4:15 AM 60.1 °F 58.8 °F 96% 30.05 in 10.0 mi NW 5.8 mph - N/A   Clear
4:35 AM 60.1 °F 58.1 °F 93% 30.05 in 10.0 mi NW 4.6 mph - N/A   Clear
4:55 AM 60.4 °F 57.7 °F 91% 30.06 in 10.0 mi NNW 5.8 mph - N/A   Scattered Clouds
5:15 AM 61.0 °F 57.6 °F 88% 30.06 in 10.0 mi NNW 5.8 mph - N/A   Scattered Clouds
5:35 AM 60.8 °F 57.2 °F 88% 30.07 in 10.0 mi NNW 6.9 mph - N/A   Clear
5:55 AM 61.7 °F 57.4 °F 86% 30.07 in 10.0 mi NNW 6.9 mph - N/A   Scattered Clouds
6:15 AM 61.9 °F 57.4 °F 85% 30.07 in 10.0 mi North 8.1 mph - N/A   Scattered Clouds
6:35 AM 61.5 °F 57.6 °F 87% 30.07 in 10.0 mi North 9.2 mph - N/A   Clear
6:55 AM 61.3 °F 58.1 °F 89% 30.08 in 10.0 mi North 10.4 mph - N/A   Clear
7:15 AM 61.5 °F 58.5 °F 90% 30.09 in 10.0 mi North 8.1 mph - N/A   Scattered Clouds
7:20 AM 62.6 °F 59.0 °F 88% 30.10 in 10.0 mi North 9.2 mph - N/A   Scattered Clouds
7:47 AM 62.6 °F 59.0 °F 88% 30.11 in 10.0 mi North 9.2 mph - N/A   Partly Cloudy
8:47 AM 62.6 °F 59.0 °F 88% 30.13 in 10.0 mi NNE 4.6 mph - N/A   Scattered Clouds
9:47 AM 68.0 °F 57.2 °F 68% 30.13 in 10.0 mi North 8.1 mph - N/A   Clear
10:47 AM 69.8 °F 55.4 °F 60% 30.14 in 10.0 mi North 11.5 mph 17.3 mph N/A   Clear
11:50 AM 71.6 °F 55.4 °F 57% 30.15 in 10.0 mi NNW 11.5 mph 19.6 mph N/A   Scattered Clouds
12:50 PM 71.6 °F 55.4 °F 57% 30.14 in 10.0 mi NNW 11.5 mph 18.4 mph N/A   Scattered Clouds
1:50 PM 71.6 °F 55.4 °F 57% 30.14 in 10.0 mi NW 10.4 mph 19.6 mph N/A   Scattered Clouds
2:50 PM 73.4 °F 55.4 °F 53% 30.13 in 10.0 mi North 6.9 mph - N/A   Scattered Clouds
3:50 PM 75.2 °F 55.4 °F 50% 30.12 in 10.0 mi North 11.5 mph - N/A   Scattered Clouds
4:55 PM 73.4 °F 55.4 °F 53% 30.12 in 10.0 mi NW 11.5 mph - N/A   Mostly Cloudy
5:50 PM 73.4 °F 55.4 °F 53% 30.12 in 10.0 mi WNW 11.5 mph - N/A   Scattered Clouds
6:55 PM 71.6 °F 55.4 °F 57% 30.11 in 10.0 mi NW 11.5 mph - N/A   Scattered Clouds
7:35 PM 71.4 °F 54.3 °F 55% 30.12 in 10.0 mi North 6.9 mph - N/A   Clear
7:55 PM 70.7 °F 54.0 °F 55% 30.12 in 10.0 mi North 9.2 mph - N/A   Clear
8:15 PM 70.0 °F 53.4 °F 56% 30.12 in 10.0 mi North 8.1 mph - N/A   Clear
8:35 PM 68.4 °F 53.6 °F 59% 30.13 in 10.0 mi North 5.8 mph - N/A   Clear
8:55 PM 65.7 °F 54.7 °F 68% 30.13 in 10.0 mi NW 3.5 mph - N/A   Clear
9:35 PM 63.3 °F 55.4 °F 75% 30.13 in 0.2 mi North 4.6 mph - N/A   Haze
9:55 PM 63.0 °F 55.8 °F 77% 30.13 in 0.2 mi NNE 4.6 mph - N/A   Haze
10:15 PM 63.0 °F 55.9 °F 78% 30.14 in 0.2 mi North 4.6 mph - N/A   Haze
10:35 PM 61.9 °F 56.3 °F 82% 30.13 in 0.8 mi Calm Calm - N/A   Haze
10:55 PM 61.0 °F 56.3 °F 85% 30.14 in 0.2 mi North 3.5 mph - N/A   Haze
11:15 PM 59.9 °F 55.9 °F 87% 30.14 in 10.0 mi Calm Calm - N/A   Clear
11:35 PM 58.3 °F 55.9 °F 92% 30.14 in 10.0 mi Calm Calm - N/A   Clear
11:55 PM 58.3 °F 56.1 °F 93% 30.13 in 4.0 mi Calm Calm - N/A   Clear